Regional Weather Roundup
Issued by NWS

Home | Current Version | Previous Version | Text Only | Print | Product List | Glossary Off
Versions: 1 2 3 4 5 6 7 8 9 10 11 12 13 14 15 16 17 18 19 20 21 22 23 24 25 26 27 28 29 30 31 32 33 34 35 36 37 38 39 40 41 42 43 44 45 46 47 48 49 50

000
ASUS45 KTFX 051610
RWRMT
MONTANA REGIONAL WEATHER ROUNDUP
NATIONAL WEATHER SERVICE GREAT FALLS MT
1000 AM MDT SUN JUL 05 2015

NOTE: "FAIR" INDICATES FEW OR NO CLOUDS BELOW 12000 FEET WITH NO
SIGNIFICANT WEATHER AND/OR OBSTRUCTIONS TO VISIBILITY.

MTZ001>007-043-051700-
WEST OF THE DIVIDE

CITY           SKY/WX    TMP DP  RH WIND       PRES   REMARKS
KALISPELL      PTSUNNY   62  43  49 NE18G31   30.07R
MISSOULA       MOSUNNY   71  45  39 E20       30.01F
BUTTE          CLOUDY    58  47  66 N3        30.13S
MULLAN PASS    MOSUNNY   61  46  57 VRB3      30.07S
DEER LODGE       N/A     57  46  67 NE14G21   30.16S
EUREKA           N/A     63  46  55 CALM      30.11S
HAMILTON         N/A     70  52  52 N15       29.99S
LIBBY            N/A     64  45  48 N7        30.06R
PLAINS           N/A     72  47  40 N2        30.01S
RONAN            N/A     67  50  54 N3        30.07S
THOMPSON FALLS   N/A     71  46  40 NE9       30.01R
$$

MTZ008-052>055-051700-
SOUTHWEST MONTANA

CITY           SKY/WX    TMP DP  RH WIND       PRES   REMARKS
BOZEMAN        CLOUDY    61  51  70 S12       30.09R
DILLON         PTSUNNY   63  50  62 NE17      30.07S
W YELLOWSTONE  CLOUDY    63  50  63 W3        30.13R
THREE FORKS      N/A     62  60  93 N8        30.08R
$$

MTZ009-010-012-014-046-048-049-054-051700-
EAST SLOPES AND CENTRAL MONTANA

CITY           SKY/WX    TMP DP  RH WIND       PRES   REMARKS
CUT BANK       RAIN      49  47  93 N10       30.20R FOG
GREAT FALLS    LGT RAIN  51  50  96 N14       30.16S FOG
MALMSTROM AFB  DRIZZLE   52  51  97 N17       30.17R
HELENA         CLOUDY    58  48  69 N9        30.15R
CONRAD           N/A     51  51 100 W8        30.19F
$$

MTZ011-013-016-021-045-047-050-051-051700-
NORTH CENTRAL MONTANA

CITY           SKY/WX    TMP DP  RH WIND       PRES   REMARKS
FORT BENTON      N/A     55  50  82 N7        30.17
$$

MTZ017>020-022>027-061-062-051700-
NORTHEAST MONTANA

CITY           SKY/WX    TMP DP  RH WIND       PRES   REMARKS
GLASGOW        PTSUNNY   66  48  52 N16       30.02S
JORDAN           N/A     66  52  60 N18G28    30.04F
SIDNEY         MOSUNNY   70  54  56 N15       29.94R
WOLF POINT     SUNNY     71  52  50 N23       29.97R HAZE
PLENTYWOOD       N/A     64  54  68 NW14      29.96R
POPLAR           N/A     68  54  60 NW17      29.97R
SCOBEY           N/A     64  49  58 NW14      29.99S
$$

MTZ028>42-056>058-051700-
SOUTHCENTRAL AND SOUTHEAST MONTANA

CITY           SKY/WX    TMP DP  RH WIND       PRES   REMARKS
BAKER          MOSUNNY   73  58  59 NE5       29.93R
BILLINGS       CLOUDY    60  52  74 NE13      30.10R HAZE
LIVINGSTON     CLOUDY    58  52  80 E14G21    30.11R HAZE
MILES CITY     CLOUDY    65  54  67 N15       29.99R HAZE
EKALAKA          N/A     72  59  63 NE8       29.92R
FORSYTH          N/A     63  52  67 NW10      30.04R
LAUREL           N/A     60  48  64 N7        30.07R
ROUNDUP          N/A     60  46  59 N7        30.01S
$$

REGIONAL REPORTS...DAKOTAS

CITY           SKY/WX    TMP DP  RH WIND       PRES   REMARKS
WILLISTON      PTSUNNY   71  55  56 N22G33    29.92R HAZE
MINOT          CLOUDY    67  63  87 N9        29.81F FOG
DICKINSON      CLOUDY    66  61  84 SE10      29.84F
BEACH          CLOUDY    68  63  83 N18       29.94R
CROSBY         FAIR      64  63  94 NW16G25   29.93R FOG
BISMARCK       PTSUNNY   72  62  71 N12       29.85R
GRAND FORKS    CLOUDY    74  69  85 S8        29.72F
FARGO          MOSUNNY   81  67  62 S17       29.74R
BUFFALO SD       N/A     75  61  61 NE23G29   29.81R
RAPID CITY     MOSUNNY   78  65  63 N18G25    29.83R
$$

REGIONAL REPORTS...WYOMING/IDAHO/WASHINGTON

CITY           SKY/WX    TMP DP  RH WIND       PRES   REMARKS
GILLETTE       CLOUDY    64  59  83 N20G29    29.96R
SHERIDAN       CLOUDY    61  54  77 NW22G30   30.05R
BUFFALO WY     CLOUDY    58  54  86 N25G40    30.04R
CODY           CLOUDY    59  52  77 N17G24    30.09R
YELLOWSTONE LA   N/A     62  45  53 MISG      30.22R
IDAHO FALLS    CLOUDY    70  55  59 SW14      30.02R
SALMON         PTSUNNY   75  46  35 N6        29.89F
BOISE          CLOUDY    80  54  40 N7        29.89S
SPOKANE        MOSUNNY   77  48  35 N13G21    29.88R
$$

REGIONAL REPORTS...ALBERTA

CITY           SKY/WX    TMP DP  RH WIND       PRES   REMARKS
EDMONTON       CLOUDY    55  43  62 NW14      30.17R
CALGARY        PTSUNNY   55  43  62 N18       30.21S
LETHBRIDGE     CLOUDY    55  50  82 W9        30.19S
MEDICINE HAT   PTSUNNY   61  50  67 NW8       30.13F
MILK RIVER       N/A     52  50  93 NW7         N/A
ONEFOUR          N/A     55  50  82 NW18        N/A
$$

REGIONAL REPORTS...SASKATCHEWAN

CITY           SKY/WX    TMP DP  RH WIND       PRES   REMARKS
SWIFT CURRENT  CLOUDY    59  48  67 NW15      30.05S
REGINA         CLOUDY    66  52  59 N13       29.96R SMOKE
SASKATOON      PTSUNNY   61  50  67 N8        30.01R
CYPRESS HILLS    N/A     50  46  87 NW7         N/A
VAL MARIE        N/A     57  52  82 N14         N/A
ROCKGLEN         N/A     59  50  72 NW15G23     N/A
ASSINIBOIA       N/A     54  52  94 NW16        N/A
$$



USA.gov is the U.S. government's official web portal to all federal, state and local government web resources and services.